OpenBCM V1.08-5-g2f4a (Linux)

Packet Radio Mailbox

IZ3LSV

[San Dona' di P. JN]

 Login: GUEST





  
I0OJJ  > KEPS     05.04.25 02:25l 352 Lines 16783 Bytes #16 (0) @ AMSAT
BID : ORB25095.1
Read: GUEST
Subj: 2Line Orbital Elements 25095.AMSAT
Path: IZ3LSV<I0OJJ
Sent: 250405/0025z @:I0OJJ.ITA.EU [Rome] obcm1.08-6-g5b69
From: I0OJJ @ I0OJJ.ITA.EU (Gustavo)
To:   KEPS @ AMSAT
X-Info: This message was generated automatically


QST de W1STR

AMSAT Orbital Elements for Amateur Satellites in TLE Format
From Orbital Analysis Office
New England Sci-Tech STEM Education Center
Natick, MA April 05, 2025
To all radio amateurs


These element sets describe the orbits of various satellites 
in use by the amateur radio community. For details see:
www.amsat.org/keplerian-elements-formats/

A daily update of element sets is available at:
www.amsat.org/tle/daily-bulletin.txt
or without bulletin text:
www.amsat.org/tle/dailytle.txt


AO-07
1 07530U 74089B   25094.58509027 -.00000030  00000-0  10221-3 0  9992
2 07530 101.9953  98.1428 0011890 247.3953 229.4614 12.53687879305551
UO-11
1 14781U 84021B   25094.48748840  .00003124  00000-0  33705-3 0  9990
2 14781  97.7479  62.2026 0007487 182.8078 177.3098 14.89083078191806
AO-27
1 22825U 93061C   25094.76193978  .00000265  00000-0  11844-3 0  9992
2 22825  98.7435 155.9697 0007444 310.5497  49.5036 14.30767200644570
FO-29
1 24278U 96046B   25094.58033147  .00000023  00000-0  57793-4 0  9999
2 24278  98.5824 357.1425 0350400 153.4332 208.5249 13.53242362413842
NOAA-15
1 25338U 98030A   25094.82940906  .00000387  00000-0  17697-3 0  9990
2 25338  98.5423 121.5240 0010217 185.2466 174.8609 14.26932223399024
GO-32
1 25397U 98043D   25094.51718264  .00000259  00000-0  13241-3 0  9994
2 25397  98.9655  72.2767 0002176  61.6057 298.5340 14.24288562388880
ISS
1 25544U 98067A   25094.81142387  .00015821  00000-0  29223-3 0  9992
2 25544  51.6366 310.4337 0004852   9.4198 350.6880 15.49239827503783
NO-44
1 26931U 01043C   25094.84035049  .00000433  00000-0  19336-3 0  9997
2 26931  67.0504 297.8069 0005578 269.2558  90.7905 14.31683758227858
SO-50
1 27607U 02058C   25094.87334452  .00004804  00000-0  61907-3 0  9995
2 27607  64.5553  43.3187 0048603 349.8371  10.1747 14.81335482199709
CO-55
1 27844U 03031E   25094.55928723  .00000794  00000-0  36542-3 0  9996
2 27844  98.6788 103.6796 0010109  26.2518 333.9171 14.23918726129248
CO-57
1 27848U 03031J   25094.47706394  .00000670  00000-0  31495-3 0  9994
2 27848  98.6817 103.6537 0010310  42.4286 317.7688 14.23264203128969
RS-22
1 27939U 03042A   25094.82783880  .00003309  00000-0  53384-3 0  9994
2 27939  98.3223 262.7194 0010994 213.3778 284.3832 14.72092270151151
NOAA-18
1 28654U 05018A   25094.72466204  .00000384  00000-0  22700-3 0  9999
2 28654  98.8439 174.9387 0013261 319.3122  40.7059 14.13565326 24446
CO-58
1 28895U 05043F   25094.32742755  .00005197  00000-0  86044-3 0  9996
2 28895  98.2388 237.9017 0015394 154.0770 206.1210 14.70646482 37203
CO-65
1 32785U 08021C   25094.47440326  .00013481  00000-0  99325-3 0  9994
2 32785  97.7780  65.2142 0011734  77.1265 283.1270 15.03401437919144
AAUSAT2
1 32788U 08021F   25094.51301929  .00263970  00000-0  26598-2 0  9998
2 32788  97.6044  89.2801 0007339 135.7423 224.4424 15.64525049923080
CO-66
1 32791U 08021J   25094.51182927  .00024712  00000-0  12708-2 0  9994
2 32791  97.7240  73.1956 0006237  60.0414 300.1437 15.16428886920476
RS-30
1 32953U 08025A   25094.73095962  .00000048  00000-0  27411-3 0  9998
2 32953  82.4978 268.1360 0019486 186.9463 173.1350 12.43161503765355
NOAA-19
1 33591U 09005A   25094.79115117  .00000370  00000-0  22095-3 0  9998
2 33591  99.0032 159.1116 0013836 185.4628 174.6395 14.13330912832819
SRMSAT
1 37841U 11058D   25094.62938616  .00000619  00000-0  19310-3 0  9992
2 37841  19.9708 193.6360 0011925  59.5662 329.0351 14.11403317695781
ZACUBE-1
1 39417U 13066B   25094.31409583  .00011476  00000-0  10148-2 0  9998
2 39417  97.7743  51.7446 0042695 273.8787  85.7553 14.95770740615007
Delfi-N3xt
1 39428U 13066N   25094.51802789  .00014194  00000-0  14822-2 0  9990
2 39428  97.8352  12.9650 0085286 216.9456 142.5867 14.87122853609253
GOMX-1
1 39430U 13066Q   25094.68797110  .00004514  00000-0  70654-3 0  9993
2 39430  97.6927 317.3767 0134348  43.7852 317.3913 14.67275896605741
LO-74
1 39440U 13066AA  25094.58018440  .00011397  00000-0  11673-2 0  9997
2 39440  97.8437  39.6516 0064476  39.2720 321.3147 14.89093271611610
AO-73
1 39444U 13066AE  25094.38303260  .00016745  00000-0  12939-2 0  9994
2 39444  97.7659  56.1506 0039481 249.4281 110.2705 15.00971125613655
DTUSAT-2
1 40030U 14033W   25093.85784825  .00016246  00000-0  10892-2 0  9995
2 40030  98.0503  62.5340 0007406 291.1945  68.8489 15.06928590586346
EO-80
1 40032U 14033Y   25094.34617422  .00015617  00000-0  10447-2 0  9997
2 40032  98.0383  62.7914 0007274 212.0010 148.0775 15.07020649586394
LILACSAT-2
1 40908U 15049K   25094.83422119  .00023686  00000-0  65617-3 0  9993
2 40908  97.5129 113.6602 0010817  47.2535 312.9617 15.36909974528128
IO-86
1 40931U 15052B   25038.81889873  .00001817  00000-0  15548-3 0  9993
2 40931   6.0001 108.1159 0012838 187.7041 172.2889 14.78568669506492
Horyu-4
1 41340U 16012D   25094.61904518  .00038841  00000-0  11689-2 0  9997
2 41340  30.9970 214.4183 0008882  94.3724 265.7936 15.33113273502644
Lapan A3
1 41603U 16040E   25094.81929157  .00007920  00000-0  28130-3 0  9992
2 41603  97.1400 102.0282 0012570 136.8497 223.3731 15.29207754487737
CAS-2T
1 41847U 16066G   25094.47995242  .00002653  00000-0  38520-3 0  9992
2 41847  98.4232 169.5116 0347207  18.6525 342.7029 14.43278830441481
CAS-4B
1 42759U 17034B   25094.80028958  .00088481  00000-0  13054-2 0  9996
2 42759  43.0105 351.4241 0018267 197.0592 162.9657 15.54191654432331
CAS-4A
1 42761U 17034D   25094.81149485  .00088422  00000-0  12693-2 0  9992
2 42761  43.0139 349.0717 0019741 201.6800 158.3228 15.54903932432359
TechnoSat
1 42829U 17042E   25094.73409071  .00007781  00000-0  61073-3 0  9993
2 42829  97.3923 266.5967 0014342 138.5507 221.6808 15.01102723420841
AO-91
1 43017U 17073E   25094.59987650  .00018304  00000-0  95708-3 0  9990
2 43017  97.5332 327.0613 0177496  31.5397 329.6322 15.03235100399299
S-Net D
1 43186U 18014G   25094.29461181  .00011731  00000-0  70721-3 0  9991
2 43186  97.5668 357.8982 0011206  92.3085 267.9427 15.10867219392364
S-Net B
1 43187U 18014H   25094.29918726  .00011321  00000-0  68286-3 0  9992
2 43187  97.5674 357.8709 0012021  88.4058 271.8548 15.10849783392365
S-Net A
1 43188U 18014J   25094.69259701  .00010975  00000-0  66162-3 0  9993
2 43188  97.5681 358.4017 0011809  87.8473 272.4109 15.10879776392422
S-Net C
1 43189U 18014K   25094.30144906  .00011399  00000-0  68731-3 0  9997
2 43189  97.5697 358.0178 0013467  82.6873 277.5887 15.10846582390913
Ten-Koh
1 43677U 18084G   25094.57216892  .00005855  00000-0  47409-3 0  9998
2 43677  98.0961 264.1979 0010364 133.9057 226.3022 15.00102853350349
PO-101
1 43678U 18084H   25094.80041025  .00005565  00000-0  47780-3 0  9999
2 43678  98.0991 268.4446 0008816 144.0016 216.1800 14.97870338350533
QO-100
1 43700U 18090A   25094.55044918  .00000130  00000-0  00000-0 0  9992
2 43700   0.0183 221.4850 0001285 172.2743  23.3139  1.00269062 23273
MinXSS-2
1 43758U 18099A   25094.56308272  .00028671  00000-0  12168-2 0  9991
2 43758  97.5078 160.4843 0012278  35.6396 324.5657 15.22984272346910
AO-95
1 43770U 18099N   25094.73326214  .00017522  00000-0  92339-3 0  9992
2 43770  97.4988 153.5917 0012477  85.4731 274.7926 15.15582968346570
RANGE-A
1 43773U 18099R   25094.07867584  .00010052  00000-0  65193-3 0  9991
2 43773  97.4571 144.4157 0012754  65.3880 294.8676 15.08215079346197
MOVE-II
1 43780U 18099Y   25094.17624764  .00164397  00000-0  26007-2 0  9993
2 43780  97.4718 165.9635 0000357 359.3345   0.7907 15.52862065347425
SNUSat 2
1 43782U 18099AA  25094.71378208  .00015751  00000-0  88759-3 0  9996
2 43782  97.4667 150.8473 0012549  28.5708 331.6208 15.13217036346537
SnugLite
1 43784U 18099AC  25094.71116699  .00018339  00000-0  95959-3 0  9997
2 43784  97.4491 150.2860 0003945  45.8103 314.3453 15.15885628346652
ITASat 1
1 43786U 18099AE  25094.71656985  .00013178  00000-0  77323-3 0  9997
2 43786  97.4640 150.5439 0016017  77.2023 283.0996 15.11759619346503
EAGLET 1
1 43790U 18099AJ  25094.42636306  .00010395  00000-0  67296-3 0  9991
2 43790  97.4843 150.4182 0013386  61.4749 298.7825 15.08265319346096
ESEO
1 43792U 18099AL  25094.73513413  .00004037  00000-0  30975-3 0  9990
2 43792  97.4580 144.8414 0012553  37.1343 323.0749 15.02271016345930
CSIM
1 43793U 18099AM  25094.79522807  .00152421  00000-0  23592-2 0  9991
2 43793  97.4903 168.7390 0003690 330.8079  29.2967 15.53508625347360
JO-97
1 43803U 18099AX  25094.09245657  .00020935  00000-0  10078-2 0  9990
2 43803  97.4738 153.8266 0007693  29.8878 330.2794 15.18763677346671
Suomi 100
1 43804U 18099AY  25094.13820142  .00019908  00000-0  10164-2 0  9998
2 43804  97.4801 153.3419 0012791  26.7629 333.4261 15.16670418346620
ISAT
1 43879U 18111D   25094.50325402  .00037259  00000-0  14221-2 0  9992
2 43879  97.5988   7.5765 0012152  75.2372 285.0211 15.26489685343605
UWE-4
1 43880U 18111E   25093.73274001  .00028476  00000-0  12007-2 0  9997
2 43880  97.5929   5.7044 0015319  85.8147 274.4840 15.23167599343443
Sparrow
1 43881U 18111F   25094.53451029  .00037781  00000-0  13978-2 0  9991
2 43881  97.6119  10.2452 0010244 105.3452 254.8920 15.27538550343690
Prox-1
1 44339U 19036A   25094.43841331  .00022715  00000-0  30304-2 0  9998
2 44339  23.9960 135.7183 0007255  45.5033 314.6056 14.78088180308215
SONATE
1 44400U 19038Q   25094.80415278  .00155900  00000-0  12997-2 0  9998
2 44400  97.7031 114.1244 0010637 129.2692 230.9514 15.69532307319183
Taurus 1
1 44530U 19059C   25094.83185333  .00019349  00000-0  36472-2 0  9994
2 44530  98.5978 231.1898 0010265 231.6247 128.4033 14.64520181294317
